This demonstration page uses our WeatherBlox Daily Observations layout. Learn more.

Left ArrowRight Arrow

Hourly Observations for September 27, 2018

Temp ( °F °C ) Dew Point ( °F °C ) Humidity (%) Winds ( mph kmh ) Pressure ( in mb ) Visibility ( mi km ) Precip ( " mm )
12:53 am 00:53 Clear 57 13.9 41 5 55 55 S 10 17 30.04 1017 10 16 0.00 0.00
1:53 am 01:53 Clear 56 13.3 41 5 57 57 SSW 9 15 30.05 1018 10 16 0.00 0.00
2:53 am 02:53 Clear 54 12.2 41 5 62 62 S 12 19 30.03 1017 10 16 0.00 0.00
3:53 am 03:53 Clear 53 11.7 41 5 64 64 SSW 12 19 30.01 1016 10 16 0.00 0.00
4:53 am 04:53 Clear 53 11.7 40 4.4 61 61 SSW 12 19 29.98 1015 10 16 0.00 0.00
5:53 am 05:53 Clear 52 11.1 40 4.4 64 64 SSW 9 15 29.98 1015 10 16 0.00 0.00
6:53 am 06:53 Clear 51 10.6 40 4.4 66 66 SSW 10 17 29.98 1015 10 16 0.00 0.00
7:53 am 07:53 Sunny 50 10 41 5 71 71 WSW 3 6 29.99 1016 10 16 0.00 0.00
8:53 am 08:53 Sunny 52 11.1 43 6.1 72 72 W 3 6 30.00 1016 10 16 0.00 0.00
9:53 am 09:53 Sunny 58 14.4 44 6.7 60 60 SW 8 13 29.99 1016 10 16 0.00 0.00
10:53 am 10:53 Sunny 64 17.8 44 6.7 48 48 W 9 15 29.97 1015 10 16 0.00 0.00
11:53 am 11:53 Sunny 68 20 44 6.7 42 42 VRB 3 6 29.95 1014 10 16 0.00 0.00
12:53 pm 12:53 Sunny 71 21.7 44 6.7 38 38 SSW 6 9 29.93 1014 10 16 0.00 0.00
1:53 pm 13:53 Sunny 76 24.4 42 5.6 30 30 N 9 15 29.91 1013 10 16 0.00 0.00
2:53 pm 14:53 Sunny 75 23.9 39 3.9 27 27 NE 12 19 29.91 1013 10 16 0.00 0.00
3:53 pm 15:53 Sunny 76 24.4 40 4.4 27 27 NNE 10 17 29.89 1012 10 16 0.00 0.00
4:53 pm 16:53 Sunny 75 23.9 40 4.4 28 28 NNE 9 15 29.89 1012 10 16 0.00 0.00
5:53 pm 17:53 Sunny 72 22.2 41 5 33 33 N 16 26 29.91 1013 10 16 0.00 0.00
6:53 pm 18:53 Sunny 67 19.4 40 4.4 37 37 NNE 18 30 29.94 1014 10 16 0.00 0.00
7:53 pm 19:53 Clear 62 16.7 42 5.6 48 48 NNE 15 24 30.00 1016 10 16 0.00 0.00
8:53 pm 20:53 Clear 60 15.6 44 6.7 56 56 NNE 14 22 30.02 1017 10 16 0.00 0.00
9:53 pm 21:53 Clear 58 14.4 45 7.2 62 62 NE 12 19 30.01 1016 10 16 0.00 0.00
10:53 pm 22:53 Clear 57 13.9 45 7.2 64 64 NE 13 20 30.04 1017 10 16 0.00 0.00
11:53 pm 23:53 Clear 56 13.3 46 7.8 70 70 NE 13 20 30.05 1018 10 16 0.00 0.00

Powered by AerisWeather